sat.trackr.live / text

‹ back to catalog

ONEWEB-0379

NORAD 49305 · 2021-090AC

PAYLOAD ACTIVE UNKNOWN

§ Identity

Operator
Country
UK
Launch date
2021-10-14
Launch site
VOSTO
Launch vehicle
Mass (kg)
RCS (m²)

Purposes: comms

External: N2YO · Heavens-Above · Gunter

§ Orbital elements

Epoch: 2026-05-25T03:01:59.828160Z

Period
109.55 min
Inclination
87.8944°
Eccentricity
0.0001946
Mean motion
13.14501742 rev/d
Perigee alt
1,204.3 km
Apogee alt
1,207.3 km
Semi-major
7,583.9 km
B*
-4.6341e-4
RAAN
294.3067°
Arg perigee
95.1356°
Mean anomaly
264.9996°
Rev number
22,453

§ Raw data

ONEWEB-03791 49305U 21090AC  26145.12638690 -.00000159  00000+0 -46341-3 0  99932 49305  87.8944 294.3067 0001946  95.1356 264.9996 13.14501742224532

JSON: /api/v1/satellites/49305 · /tle

For live sub-satellite position, see the globe view (requires WebGL).

§ Visibility from observer

Set your observer location to see the next 7 days of passes ≥ 10°. The values pass through the URL so the page stays shareable.

No JS? Fill the form by hand. The geolocation button needs JavaScript.